Location: Freienfels
(50.4551°N, 8.2977°E)
Time: 06:21:24
(UTC+00:00)

Daily predictions for brighter satellites

Satellite Brightness Start Highest point End
(mag) Time Altitude Azimuth Time Altitude Azimuth Time Altitude Azimuth
Resurs 01 Rocket 1.8 19:29:17 10° SSE 19:33:37 59° ENE 19:38:00 10° N
Cosmos 1441 Rocket 3.7 19:35:31 10° SSE 19:39:05 39° E 19:42:38 10° NNE
IRIDIUM 114 4.4 19:36:36 10° S 19:41:45 64° E 19:46:55 10° N
Cosmos 614 Rocket 4.3 19:37:49 10° S 19:42:43 45° ESE 19:47:40 10° NE
IGS 5A 4.3 19:41:33 10° SE 19:45:19 35° ENE 19:49:07 10° N
Cosmos 1900 4.3 19:40:58 10° SSW 19:45:52 69° SE 19:50:54 10° NE
USA 267 3.5 19:41:19 10° ENE 19:47:37 48° SE 19:53:53 10° SSW
GP-B 4.2 19:45:31 10° NNE 19:49:22 28° E 19:53:10 10° SE
IRIDIUM 103 4.3 19:45:39 10° S 19:50:51 76° E 19:56:06 10° N
Cosmos 1821 Rocket 4.0 19:47:04 10° S 19:53:05 63° E 19:59:14 10° NNE
Shenzhou-11 Module 3.7 19:53:16 10° SW 19:54:31 13° S 19:55:30 11° SSE
Cosmos 921 Rocket 4.4 19:51:13 10° N 19:54:42 24° NE 19:58:03 10° ESE
COSMOS 2406 3.2 19:49:21 10° SSW 19:55:02 64° ESE 20:00:43 10° NE
CZ-2C R/B 3.7 19:50:49 10° NNE 19:55:31 81° ESE 20:00:04 10° SSW
Cosmos 1743 Rocket 4.4 19:51:49 10° SSW 19:56:11 56° WNW 20:00:36 10° N
SL-16 R/B 3.8 19:52:31 10° NNW 19:57:02 23° NE 20:01:30 10° E
Cosmos 1862 Rocket 4.4 19:53:12 10° N 19:57:20 34° ENE 20:01:01 12° SE
Intercosmos 25 3.4 19:52:30 10° N 19:57:26 86° E 20:00:52 10° S
ERS-1 Rocket 3.9 19:56:08 11° SE 20:00:27 33° ENE 20:04:55 10° N
Lacrosse 5 2.8 19:55:33 10° WNW 20:00:27 45° NNE 20:05:20 10° E
Cosmos 2369 3.8 19:56:46 10° NNW 20:02:34 83° ENE 20:08:05 11° SSE
Cosmos 1862 3.5 20:00:18 10° SSW 20:04:21 80° W 20:08:27 10° N
Sich 1 3.1 20:00:52 10° S 20:05:16 69° E 20:09:43 10° NNE
Cosmos 1818 3.8 20:01:52 10° NW 20:07:18 68° SW 20:12:24 11° SSE
BREEZE-M DEB (TANK) 1.7 20:05:15 10° W 20:08:23 66° S 20:09:54 15° E
IRIDIUM 106 4.5 20:03:58 10° S 20:09:11 79° W 20:14:27 10° N
Cosmos 2082 Rocket 2.7 20:05:04 10° S 20:10:15 37° ESE 20:15:27 10° NE
Cosmos 2278 3.8 20:06:07 10° NNW 20:11:50 70° ENE 20:16:44 14° SE
Cosmos 2123 Rocket 4.1 20:05:51 10° N 20:12:02 66° ENE 20:18:06 11° SSE
Meteor 2-20 4.5 20:07:38 10° N 20:13:51 76° ENE 20:19:59 10° SSE
Spot 2 Rocket 3.5 20:11:25 11° SSE 20:16:20 74° ENE 20:21:26 10° NNW
Cosmos 2322 Rocket 3.7 20:14:50 10° NNW 20:19:37 26° NE 20:24:22 10° E
Meteor 1-4 Rocket 2.4 20:16:20 10° N 20:19:50 70° ENE 20:22:26 16° SSE
Cosmos 2239 Rocket 4.5 20:16:16 10° S 20:22:24 86° E 20:28:36 10° N
Cosmos 1184 Rocket 3.6 20:21:02 19° SSE 20:22:50 32° E 20:25:50 10° NNE
Cosmos 1190 Rocket 4.1 20:17:50 10° S 20:23:01 59° ESE 20:28:14 10° NNE
CZ-2C R/B 3.9 20:18:14 10° N 20:23:06 43° WNW 20:27:58 10° SW
CARTOSAT-1 4.1 20:20:05 17° SE 20:23:09 44° ENE 20:27:16 10° N
Terra 2.8 20:21:08 16° ESE 20:24:22 33° ENE 20:28:37 10° N
USA 234 3.3 20:18:46 14° SE 20:24:31 81° SSW 20:31:07 10° WNW
Cosmos 407 Rocket 3.5 20:20:37 10° SSW 20:25:56 74° ESE 20:31:14 10° NNE
Cosmos 1605 Rocket 4.3 20:21:08 12° SSE 20:26:35 45° E 20:32:21 10° NNE
Cosmos 1666 Rocket 3.4 20:22:33 10° S 20:26:52 76° E 20:31:12 10° NNE
Cosmos 1238 Rocket 3.4 20:28:02 22° ESE 20:28:46 24° E 20:31:15 10° NE
Okean 1 4.3 20:25:40 10° N 20:29:20 32° ENE 20:31:27 20° ESE
Meteor 1-27 Rocket 4.1 20:24:36 10° NNW 20:30:29 68° W 20:36:22 10° S
MetOp-B 4.4 20:26:02 10° S 20:31:21 68° WSW 20:36:44 10° NNW
Cosmos 2360 Rocket 4.0 20:29:17 10° NNW 20:33:36 21° NE 20:37:54 10° E
Cosmos 1437 Rocket 4.1 20:30:35 10° N 20:33:46 24° ENE 20:35:27 18° ESE
CZ-4B DEB 4.5 20:35:36 24° SSE 20:37:24 60° ENE 20:40:43 10° N
ERBS 3.8 20:34:47 10° W 20:37:56 38° NNW 20:41:04 10° NE
SPOT 5 2.9 20:35:54 21° SE 20:38:37 54° ENE 20:42:53 10° N
USA 238 DEB 4.1 20:32:53 10° S 20:38:52 37° ESE 20:45:04 10° NE
USA 238 4.1 20:33:01 10° S 20:38:58 37° ESE 20:45:10 10° NE
Cosmos 1980 Rocket 2.2 20:37:18 10° NNW 20:43:02 82° WSW 20:47:05 20° SSE
SPOT 1/Viking Rocket 3.6 20:39:53 15° SSE 20:44:13 82° WSW 20:49:30 10° NNW
Cosmos 1703 Rocket 4.3 20:40:58 10° N 20:45:02 37° ENE 20:47:06 23° ESE
Cosmos 2242 Rocket 3.9 20:40:46 10° N 20:45:07 50° ENE 20:47:29 24° SE
Cosmos 1763 Rocket 4.1 20:42:47 10° NNW 20:47:56 46° ENE 20:51:08 22° ESE
SL-4 R/B 2.0 20:44:51 10° SW 20:48:34 44° SSE 20:51:35 13° E
Genesis I 3.2 20:44:55 10° NW 20:48:47 70° SW 20:50:44 28° SSE
BREEZE-M DEB (TANK) 2.6 20:46:23 10° WSW 20:49:15 77° S 20:57:22 10° E
Cosmos 405 Rocket 3.2 20:49:22 29° SE 20:50:36 38° E 20:54:05 10° NNE
ATLAS 5 CENTAUR R/B 4.0 20:46:50 10° WNW 20:51:31 25° WSW 20:56:43 10° S
Cosmos 1140 Rocket 3.5 20:46:20 10° SSW 20:51:36 88° WNW 20:56:54 10° NNE
Cosmos 2333 Rocket 4.5 20:49:43 10° N 20:53:23 17° NNE 20:57:03 10° ENE
USA 32 4.0 20:53:02 14° S 20:57:36 86° E 21:02:52 10° N
Cosmos 1697 Rocket 3.8 20:53:23 10° NW 20:58:31 37° WSW 21:03:04 13° S
Cosmos 1633 Rocket 3.5 20:55:49 10° SSW 21:00:12 62° WNW 21:04:36 10° N
Cosmos 1833 Rocket 3.1 20:55:17 10° SW 21:00:52 65° WNW 21:06:30 10° NNE
Meteor 1-18 Rocket 4.2 21:00:56 10° N 21:06:34 78° ENE 21:09:50 26° SSE
Okean 1-7 3.3 21:02:31 10° N 21:06:48 53° ENE 21:08:30 32° SE
Cosmos 1867 3.5 21:01:49 10° SSW 21:07:13 68° SE 21:12:39 10° NE
CENTAUR R/B 3.1 21:04:46 24° SSE 21:07:26 34° ESE 21:13:32 10° NE
Resurs 01 Rocket 4.0 21:07:25 10° SW 21:10:29 18° W 21:13:36 10° NW
FALCON 9 DEB 3.2 21:10:51 10° SW 21:14:17 53° SSE 21:15:22 36° E
Meteor 2-4 Rocket 4.0 21:10:36 10° N 21:16:14 55° ENE 21:18:54 29° SE
Cosmos 1850 Rocket 4.5 21:14:18 29° SSE 21:16:20 42° ESE 21:21:18 10° NE
Cosmos 1515 3.7 21:13:23 10° N 21:17:14 70° ENE 21:18:22 43° SSE
SL-27 R/B 4.2 21:19:37 18° ENE 21:19:37 18° ENE 21:21:08 10° NE
Cosmos 44 4.0 21:15:44 10° NNW 21:20:25 48° NE 21:23:09 24° ESE
Cosmos 676 Rocket 4.1 21:15:10 10° SSW 21:20:30 81° WNW 21:25:54 10° NNE
ATLAS 5 CENTAUR R/B 2.4 21:18:26 10° NW 21:20:50 46° NE 21:23:25 22° ESE
SWARM C 4.5 21:19:00 10° N 21:22:20 66° E 21:22:47 56° SE
SWARM A 4.1 21:19:04 10° N 21:22:25 73° E 21:22:57 57° SSE
Meteor 1-25 Rocket 4.3 21:17:53 14° SSW 21:22:41 80° WNW 21:28:21 10° N
Cosmos 1470 Rocket 3.9 21:19:30 16° SSW 21:22:55 63° WNW 21:27:18 10° N
GP-B 4.5 21:22:40 10° NNW 21:26:44 36° W 21:30:41 11° SW
USA 267 3.4 21:24:21 10° ENE 21:30:54 75° NNW 21:37:26 10° WSW
Cosmos 921 Rocket 3.7 21:29:10 10° NNW 21:33:12 43° WSW 21:34:51 29° SSW
NOSS 3-2 (A) 3.3 21:27:31 10° SSW 21:33:15 74° SE 21:39:53 10° NE
ERS-1 Rocket 3.9 21:36:09 20° SSW 21:39:09 40° W 21:43:55 10° NNW
NOSS 3-2 (C) 3.5 21:35:51 24° S 21:39:12 54° ESE 21:45:35 10° NE
Cosmos 841 Rocket 3.6 21:34:48 10° NNW 21:40:00 64° ENE 21:42:00 37° SE
SAR-Lupe-2 4.4 21:36:34 10° N 21:40:02 47° WNW 21:41:56 23° SW
Cosmos 540 Rocket 3.6 21:36:17 10° NNW 21:41:27 63° ENE 21:43:22 37° SE
SL-16 R/B 2.1 21:36:12 10° NNW 21:41:56 90° NNE 21:44:17 37° SSE
Cosmos 468 Rocket 4.2 21:38:20 10° NNW 21:43:36 63° WSW 21:45:45 34° S
Lacrosse 5 1.8 21:38:40 10° WNW 21:43:45 79° SW 21:45:31 41° SE
Cosmos 1741 Rocket 3.9 21:48:23 34° S 21:50:40 74° ESE 21:55:59 10° NNE
Cosmos 1570 Rocket 4.0 21:45:58 10° NNW 21:51:18 80° ENE 21:53:10 42° SE
Tsikada Rocket 4.5 21:46:10 10° N 21:52:21 49° ENE 21:54:55 32° SE
Cosmos 2219 Rocket 3.8 21:47:58 10° NNW 21:52:50 28° NE 21:56:38 15° E
Cosmos 2208 Rocket 4.1 21:48:06 10° NNW 21:53:25 71° ENE 21:55:11 42° SE
Cosmos 1814 Rocket 4.1 21:48:35 10° NNW 21:53:47 68° ENE 21:55:32 41° SE
Cosmos 2082 Rocket 3.2 21:48:49 10° SW 21:54:17 46° NW 21:59:45 10° NNE
Cosmos 2084 Rocket 4.4 21:59:01 32° E 21:59:01 32° E 22:01:52 10° ENE
Cosmos 2237 4.4 21:52:36 10° NNW 21:58:19 65° ENE 22:00:35 37° SE
Terra 2.9 22:00:02 25° SW 22:02:03 37° W 22:06:29 10° NNW
Cosmos 2322 Rocket 2.2 21:58:34 10° NNW 22:04:17 77° WSW 22:06:13 43° SSE
EO 1 Del DPAF 4.3 22:02:05 10° NNE 22:04:57 31° ENE 22:04:57 31° ENE
USA 234 4.3 22:06:06 25° SSW 22:08:10 29° SW 22:13:46 10° WNW
Cosmos 2100 Rocket 4.0 22:05:35 31° SSW 22:08:42 82° W 22:14:53 10° N
Cosmos 1437 Rocket 4.0 22:06:40 10° NNW 22:10:04 30° W 22:10:50 28° WSW
Meteor 1-11 Rocket 3.8 22:09:09 44° SSE 22:10:42 59° E 22:16:21 10° NNE
Cosmos 1242 Rocket 3.3 22:08:47 10° N 22:12:07 41° ENE 22:12:07 41° ENE
Cosmos 1869 Rocket 3.8 22:13:01 43° SW 22:14:18 65° WNW 22:18:45 10° N
Cosmos 2360 Rocket 2.2 22:12:48 10° NNW 22:18:32 81° ENE 22:20:20 45° SE
COSMOS 2428 3.9 22:14:08 10° NNW 22:19:26 36° NE 22:22:37 21° E
Geosat 4.2 22:20:48 47° SSW 22:21:57 58° WSW 22:26:56 10° NW
ATLAS 3B R/B 2.9 22:21:13 40° SE 22:22:19 43° ESE 22:28:31 10° NE
Iridium 4 Rocket 3.5 22:21:45 42° SW 22:22:49 55° W 22:26:59 10° N
Cosmos 2173 Rocket 4.1 22:21:11 31° SSW 22:24:17 69° WNW 22:30:26 10° N
Cosmos 1500 3.9 22:25:10 42° WSW 22:25:42 46° WNW 22:29:21 10° N
CRYOSAT 2 4.3 22:20:48 10° N 22:25:43 88° E 22:26:46 56° S
Cosmos 1980 Rocket 4.3 22:23:01 10° WNW 22:26:08 15° W 22:28:51 11° SW
SL-4 R/B 2.3 22:24:19 10° W 22:27:13 50° W 22:27:13 50° W
ALOS 2 2.8 22:27:44 54° ESE 22:28:18 60° ENE 22:32:38 10° N
USA 238 DEB 4.0 22:22:51 10° WSW 22:29:29 65° NW 22:36:28 10° NE
Cosmos 1725 Rocket 3.9 22:27:19 43° S 22:29:33 79° E 22:35:54 10° NNE
USA 238 4.0 22:22:57 10° WSW 22:29:36 65° NW 22:36:34 10° NE
Cosmos 1674 Rocket 3.5 22:28:35 10° N 22:32:54 66° ENE 22:33:13 63° ESE
SL-08 R/B 4.3 22:32:19 44° S 22:34:24 87° E 22:40:32 10° N
Cosmos 1536 2.7 22:34:39 81° ENE 22:34:39 81° ENE 22:38:35 10° NNE
Cosmos 1666 2.7 22:37:32 74° NW 22:37:32 74° NW 22:41:09 10° N
Cosmos 1743 3.9 22:38:17 33° ENE 22:38:17 33° ENE 22:41:18 10° NNE
Cosmos 2333 Rocket 2.7 22:33:21 10° NNW 22:39:02 54° NE 22:41:19 34° ESE
Cosmos 1356 3.9 22:41:30 58° N 22:41:30 58° N 22:44:23 10° N
Cosmos 1271 Rocket 3.4 22:37:18 10° N 22:40:47 44° ENE 22:40:47 44° ENE
Cosmos 2016 Rocket 4.1 22:39:51 37° SSW 22:42:31 73° WNW 22:48:55 10° N
Cosmos 2237 Rocket 4.0 22:38:15 10° NNW 22:42:57 26° NE 22:47:32 10° E
Cosmos 2061 Rocket 4.1 22:41:23 38° SSW 22:43:54 72° WNW 22:50:08 10° N
Lacrosse 4 Rocket 2.8 22:45:23 26° E 22:45:23 26° E 22:47:54 10° NE
MOS 1-B Rocket 4.0 22:38:39 10° NNE 22:44:21 67° WNW 22:46:43 35° SW
Cosmos 2221 Rocket 4.2 22:41:37 10° NNW 22:45:54 46° W 22:46:29 43° WSW
Cosmos 1733 Rocket 2.9 22:50:59 74° SW 22:51:19 80° W 22:55:45 10° N
Cosmos 1066 Rocket 4.2 22:46:40 10° NNW 22:52:25 74° W 22:53:46 52° SSW
SL-27 R/B 4.0 22:53:08 28° WNW 22:53:28 28° WNW 22:56:25 10° N
Meteor 1-23 Rocket 4.3 22:48:23 10° NNW 22:54:14 75° W 22:55:43 51° SSW
Cosmos 44 Rocket 4.1 22:50:32 10° NNW 22:55:21 48° NE 22:57:31 29° E
Thor Agena Rocket 3.6 22:50:33 10° NNE 22:55:36 70° WNW 22:57:00 47° SW
CENTAUR R/B 2.9 22:51:50 12° WSW 22:57:37 67° NW 23:04:59 10° NE
Cosmos 968 Rocket 3.9 22:59:01 44° ESE 22:59:10 44° ESE 23:04:02 10° NE
Cosmos 44 4.2 22:57:06 10° NW 23:01:33 36° WSW 23:01:33 36° WSW
Cosmos 1975 4.1 23:02:22 31° ENE 23:02:22 31° ENE 23:05:32 10° NNE
SL-24 DEB 4.4 23:00:09 10° N 23:04:54 60° E 23:05:18 58° ESE
Cosmos 1782 Rocket 4.4 23:10:37 37° E 23:10:37 37° E 23:14:32 10° NNE
Cosmos 1378 3.7 23:09:18 10° NNW 23:12:29 54° NW 23:12:29 54° NW
USA 267 4.1 23:07:17 10° ENE 23:13:34 51° N 23:19:51 10° WNW
Cosmos 2233 Rocket 4.0 23:14:31 45° SSW 23:16:35 75° W 23:22:57 10° N
Cosmos 1464 Rocket 4.5 23:15:36 40° SE 23:17:14 49° E 23:23:10 10° NNE
Cosmos 1842 3.6 23:14:00 10° N 23:17:41 57° ENE 23:17:41 57° ENE
Cosmos 1908 Rocket 3.4 23:18:32 78° ESE 23:18:34 78° E 23:22:57 10° NNE
Helios 1B rocket 4.1 23:18:52 10° NE 23:21:49 22° E 23:21:49 22° E
Cosmos 2227 Rocket 4.3 23:22:42 13° ESE 23:23:30 13° E 23:25:57 10° ENE
Meteor 1-21 4.4 23:17:57 10° N 23:23:46 65° ENE 23:25:22 46° SE
SL-16 R/B 4.0 23:21:43 10° WNW 23:25:14 17° W 23:26:08 16° WSW
Lacrosse 5 3.7 23:22:27 10° W 23:24:40 18° WSW 23:24:40 18° WSW
Cosmos 1378 Rocket 4.1 23:24:28 10° NNW 23:28:44 45° W 23:28:49 45° W
Cosmos 2322 3.8 23:23:10 10° NW 23:28:44 59° WSW 23:29:31 54° SSW
NOSS 3-2 (C) 4.5 23:24:30 10° WSW 23:30:17 46° NNW 23:36:58 10° NE
Cosmos 1833 4.3 23:28:45 46° SW 23:30:27 74° WNW 23:36:09 10° NNE
COSMOS 2487 3.4 23:32:14 45° NNW 23:32:14 45° NNW 23:35:02 10° NNE
Nadezhda 4 Rocket 4.3 23:29:35 10° N 23:35:50 59° ENE 23:38:03 38° SE
Cosmos 2219 Rocket 2.1 23:31:39 10° NNW 23:37:20 71° WSW 23:38:19 58° S
Cosmos 783 Rocket 4.5 23:36:02 10° NNW 23:41:18 80° ENE 23:42:23 57° SE
Cosmos 1975 Rocket 2.9 23:37:44 10° N 23:42:15 90° ENE 23:42:25 84° SSE
Okean 2 Rocket 4.0 23:45:22 35° E 23:45:39 36° E 23:49:46 10° NNE
Cosmos 2034 Rocket 4.3 23:43:53 42° SE 23:45:41 57° E 23:51:51 10° NNE
Cosmos 1503 Rocket 4.0 23:45:55 62° SSE 23:46:43 74° ESE 23:52:06 10° NNE
Cosmos 2322 Rocket 4.2 23:44:34 10° WNW 23:47:22 14° W 23:48:01 14° WSW
Cosmos 1072 Rocket 4.4 23:46:51 52° S 23:48:27 85° E 23:54:36 10° N
YAOGAN 11 4.2 23:48:26 65° WSW 23:48:35 66° WSW 23:53:11 10° NNW
Helios 1A 3.4 23:49:48 50° W 23:49:48 50° W 23:53:41 10° NNW
Landsat 4 4.1 23:45:53 10° NNE 23:49:12 58° ENE 23:49:12 58° ENE
SL-16 R/B 3.9 23:46:15 14° ESE 23:50:57 35° ENE 23:56:31 10° N
ERBS 3.6 23:48:27 10° NW 23:51:02 39° N 23:51:02 39° N
Cosmos 1300 Rocket 4.4 23:52:28 37° E 23:52:38 38° E 23:56:37 10° NNE
CZ-2D R/B 4.1 23:49:09 10° NE 23:52:54 18° E 23:54:54 15° ESE
SL-16 R/B 3.9 23:48:12 10° NNW 23:53:14 31° NE 23:58:15 10° ESE
Cosmos 1486 Rocket 4.2 23:52:11 47° WSW 23:53:27 62° WNW 23:58:39 10° NNE
Cosmos 1544 3.8 23:54:38 49° NW 23:54:38 49° NW 23:57:46 10° N
